Погода в Берд-Юрте

Россия / Республика Ингушетия     43°12′54″N   45°06′46″E
темп.,
°C
ветер,
м/с
пор.,
м/с
влажн.,
%
обл.,
%
осадки,
мм/ч
давл.,
гПа
погр.,
м
17 апреля, сб
сб1700:00+11ююз22695 0.0 101817
03:00+10ююз116776 0.0 101812
06:00+10юз116516 0.0 101714
09:00+17ссз224761 0.0 1017533
12:00+19сз665099 0.0 10191499
15:00+17сз5555100 0.0 10191317
18:00+12зсз4684100 0.1 1021567
21:00+11зсз2487100 0.5 1022501
18 апреля, вс
вс1800:00+10с1287100 0.1 1022339
03:00+10св1189100 0.1 1021241
06:00+9всв2392100 0.0 1021352
09:00+10вюв348997 0.0 1019468
12:00+15в346999 0.0 1017934
15:00+17в556050 0.1 10161071
18:00+14всв2480100 0.6 1018104
21:00+12всв129698 4.2 101945
19 апреля, пн
пн1900:00+10вюв119956 0.0 101821
03:00+10вюв1198100 0.0 101820
06:00+10ююв119482 0.0 101722
09:00+16в2371100 0.0 1017443
12:00+20в4454100 0.0 1015803
15:00+21в66475 0.0 10131084
18:00+17в48605 0.0 1014327
21:00+13вюв2274100 0.0 101418
20 апреля, вт
вт2000:00+13ю1175100 0.0 101113
03:00+12юв2275100 0.0 101013
06:00+13вюв2373100 0.0 100758
09:00+19всв2254100 0.0 1005230
12:00+23в3348100 0.0 1003324
15:00+26всв3441100 0.0 1002616
18:00+20з3668100 0.0 1006130
21:00+14зсз81281100 0.0 1012799
21 апреля, ср
ср2100:00+10з5979100 1.1 1017732
03:00+10зюз3574100 1.1 1018329
06:00+11вюв2376100 0.0 1019177
09:00+11в3672100 0.0 1020756
12:00+11всв4669100 0.0 1020728
15:00+12ссв456077 0.0 1020971
18:00+10с3375100 0.0 1022556
21:00+9з1283100 0.3 1023226